ZL3GL-4 Weather Reports


time (UTC)temp
C
wind
direction
speed
KPH
gust
KPH
rain 1hr
cm
rain 24hr
cm
rain mn
cm
humidity
%
barometer
mb
20260510075625 9 274 9.7 6.4 0.00 0.15 0.00 63 1007.6
20260510074222 9 262 9.7 9.7 0.00 0.15 0.00 64 1007.5
20260510072819 9 255 11.3 6.4 0.00 0.15 0.00 64 1006.8
20260510071417 9 239 9.7 8.0 0.00 0.15 0.00 64 1006.4
20260510064615 9 210 9.7 9.7 0.00 0.15 0.00 65 1005.7
20260510063209 10 238 8.0 8.0 0.00 0.15 0.00 64 1005.2
20260510061806 10 210 9.7 8.0 0.00 0.15 0.00 62 1004.8
20260510060401 10 201 16.1 14.5 0.00 0.15 0.00 62 1004.4
20260510053555 10 197 14.5 14.5 0.00 0.15 0.00 62 1003.5
20260510052154 11 193 14.5 12.9 0.00 0.15 0.00 62 1003.2
20260510050752 11 203 12.9 17.7 0.00 0.15 0.00 62 1002.8
20260510045347 11 198 16.1 20.9 0.00 0.15 0.00 62 1002.3
20260510042541 11 217 16.1 20.9 0.00 0.15 0.00 63 1001.7
20260510041137 11 190 11.3 19.3 0.00 0.15 0.00 66 1001.3
20260510035737 11 207 8.0 16.1 0.00 0.15 0.00 69 1001.0
20260510034331 12 172 9.7 9.7 0.00 0.15 0.00 73 1000.8
20260510032929 12 214 4.8 6.4 0.00 0.15 0.00 76 1000.4
20260510031525 12 232 1.6 1.6 0.00 0.15 0.00 85 1000.2
20260510030120 11 255 1.6 1.6 0.00 0.15 0.00 85 999.8
20260510024720 11 217 6.4 4.8 0.00 0.15 0.00 81 999.6
20260510023314 12 224 9.7 12.9 0.00 0.15 0.00 74 999.5
20260510021918 12 184 9.7 6.4 0.00 0.15 0.00 72 999.2
20260510020510 12 184 12.9 12.9 0.00 0.15 0.00 71 999.0
20260510015107 12 205 9.7 12.9 0.00 0.15 0.00 71 998.7
20260510013703 13 228 11.3 9.7 0.00 0.15 0.00 69 998.3
20260510012259 13 197 8.0 16.1 0.00 0.15 0.00 72 998.0
20260510010856 12 224 12.9 11.3 0.00 0.15 0.00 74 997.8
20260510005456 12 197 8.0 11.3 0.00 0.15 0.00 76 997.6
20260510004050 12 193 12.9 12.9 0.00 0.15 0.00 72 997.5
20260510002650 12 210 11.3 16.1 0.00 0.15 0.00 74 997.4
20260510001243 11 218 9.7 9.7 0.00 0.15 0.00 80 997.4
20260509235840 11 186 9.7 8.0 0.00 0.15 0.00 85 997.4
20260509234437 11 181 8.0 8.0 0.00 0.15 0.00 95 997.3
20260509233033 10 204 12.9 12.9 0.00 0.15 0.00 97 997.3
20260509231628 10 217 14.5 16.1 0.00 0.15 0.00 97 997.3
20260509230225 11 225 9.7 9.7 0.00 0.15 0.00 93 996.9
20260509224821 11 180 14.5 17.7 0.00 0.15 0.00 88 996.6
20260509223416 11 148 14.5 12.9 0.00 0.15 0.00 87 996.4
20260509220610 11 162 9.7 11.3 0.00 0.15 0.00 88 996.0
20260509215207 11 172 8.0 4.8 0.00 0.15 0.00 91 995.6
20260509213803 11 165 14.5 16.1 0.00 0.15 0.00 95 995.5
20260509212359 12 148 9.7 6.4 0.00 0.15 0.00 96 995.1
20260509210954 12 187 11.3 9.7 0.00 0.15 0.00 98 994.6
20260509205554 12 143 12.9 12.9 0.00 0.15 0.00 100 994.3
20260509204152 12 142 8.0 4.8 0.00 0.15 0.00 100 994.2
20260509202745 11 176 9.7 11.3 0.00 0.15 0.00 100 994.0
20260509201341 11 193 3.2 3.2 0.00 0.15 0.00 100 993.7
20260509195937 11 207 6.4 3.2 0.00 0.15 0.00 100 993.4
20260509194534 10 183 4.8 3.2 0.00 0.15 0.00 100 993.2
20260509193130 10 188 6.4 8.0 0.00 0.15 0.00 100 992.9
20260509191727 10 262 0.0 3.2 0.00 0.15 0.00 100 992.2
20260509190326 10 217 0.0 0.0 0.00 0.15 0.00 100 991.8
20260509184921 10 281 3.2 1.6 0.00 0.15 0.00 100 991.7
20260509183517 10 287 1.6 1.6 0.00 0.15 0.00 100 991.6
20260509182112 11 285 0.0 0.0 0.00 0.15 0.00 100 991.7
20260509180709 11 273 1.6 1.6 0.00 0.15 0.00 100 991.3
20260509175307 11 294 0.0 0.0 0.00 0.15 0.00 100 991.2
20260509173902 11 294 0.0 0.0 0.00 0.15 0.00 100 991.1
20260509172502 11 322 1.6 0.0 0.00 0.15 0.00 100 990.9
20260509171058 11 124 0.0 0.0 0.00 0.15 0.00 100 991.0
20260509165658 11 222 0.0 0.0 0.00 0.15 0.00 100 990.9
20260509164249 11 205 1.6 3.2 0.00 0.15 0.00 100 990.7
20260509161443 11 152 3.2 6.4 0.00 0.15 0.00 100 990.6
20260509160039 12 208 4.8 4.8 0.00 0.15 0.00 100 990.5
20260509154636 12 159 6.4 0.0 0.00 0.15 0.00 100 990.9
20260509153232 12 200 8.0 3.2 0.00 0.15 0.00 100 990.7
20260509151832 12 146 8.0 6.4 0.00 0.15 0.00 100 990.6
20260509150426 12 186 14.5 11.3 0.00 0.15 0.00 100 990.7
20260509143618 12 197 9.7 9.7 0.00 0.15 0.00 66 990.5
20260509142213 12 277 4.8 3.2 0.00 0.15 0.00 63 989.9
20260509140810 12 291 4.8 4.8 0.00 0.15 0.00 65 990.0
20260509135406 12 297 6.4 8.0 0.00 0.15 0.00 66 989.9
20260509134006 12 284 4.8 4.8 0.00 0.15 0.00 65 989.8
20260509132604 12 304 6.4 6.4 0.00 0.15 0.00 62 989.9
20260509125754 13 315 6.4 4.8 0.00 0.15 0.00 60 990.4
20260509124354 13 319 8.0 8.0 0.00 0.15 0.00 60 990.4
20260509122947 14 291 9.7 12.9 0.00 0.15 0.00 57 990.6
20260509121547 15 316 12.9 8.0 0.00 0.15 0.00 54 990.7
20260509114739 14 345 4.8 11.3 0.00 0.53 0.15 56 991.2
20260509113335 13 305 8.0 9.7 0.00 0.53 0.15 59 991.5
20260509111932 13 335 9.7 6.4 0.00 0.53 0.15 58 991.7
20260509110527 14 304 8.0 4.8 0.00 0.53 0.15 59 991.8
20260509105124 14 290 11.3 8.0 0.00 0.53 0.15 57 992.1
20260509103720 14 301 8.0 9.7 0.00 0.53 0.15 60 992.1
20260509102317 14 318 9.7 4.8 0.00 0.53 0.15 59 992.3
20260509100913 14 277 9.7 6.4 0.00 0.53 0.15 58 992.1
20260509095513 15 274 9.7 9.7 0.00 0.53 0.15 58 992.3
20260509094108 14 293 9.7 11.3 0.00 0.53 0.15 58 992.2
20260509092704 14 290 14.5 12.9 0.00 0.53 0.15 58 992.0
20260509091300 13 295 12.9 12.9 0.00 0.53 0.15 62 992.0
20260509085857 13 260 9.7 6.4 0.00 0.53 0.15 68 992.1